Regional Weather Roundup
Issued by NWS New Orleans/Baton Rouge, LA

Home | Current Version | Previous Version | Graphics & Text | Print | Product List | Glossary On
Versions: 1 2 3 4 5 6 7 8 9 10 11 12 13 14 15 16 17 18 19 20 21 22 23 24 25 26 27 28 29 30 31 32 33 34 35 36 37 38 39 40 41 42 43 44 45 46 47 48 49 50
061
ASUS44 KLIX 302301
RWRLIX
NEW ORLEANS REGIONAL WEATHER ROUNDUP
NATIONAL WEATHER SERVICE NEW ORLEANS LA
500 PM CST FRI JAN 30 2015

NOTE: "FAIR" INDICATES FEW OR NO CLOUDS BELOW 12,000 FEET WITH NO
      SIGNIFICANT WEATHER AND/OR OBSTRUCTIONS TO VISIBILITY.
      SKY/WX - SKY CONDITION AND SIGNIFICANT WEATHER.
      TMP - AIR TEMPERATURE.     DP    - DEWPOINT TEMPERATURE.
      RH  - RELATIVE HUMIDITY.   PRES  - PRESSURE.
      HI  - HEAT INDEX.          WCI   - WIND CHILL INDEX.

*  THESE STATIONS ARE NOT NWS OR FAA STATIONS AND ARE NOT UNDER
   NWS QUALITY CONTROL.

LAZ038-040-048-061>063-065>067-069-310000-
SOUTHEAST LOUISIANA

CITY           SKY/WX    TMP DP  RH WIND       PRES   REMARKS
N.O. AUDUBON     N/A     56  37  49 MISG        N/A
N.O. INTL ARPT MOCLDY    56  33  42 N5        30.32S
N.O. LAKEFRONT MOCLDY    56  43  61 W6        30.32F
N.O. DOWNTOWN* NOT AVBL
SLIDELL        MOCLDY    57  32  38 N6        30.31S
BATON ROUGE    MOCLDY    59  29  31 N5        30.32F
BOOTHVILLE     PTCLDY    54  40  59 N7        30.32S
BELLE CHASSE   MOCLDY    58  33  39 NW5       30.31S
BOGALUSA*        N/A     59  30  32 N6        30.33F
GALLIANO*      NOT AVBL
NEW ROADS*     NOT AVBL
GONZALES*      NOT AVBL
HAMMOND*       NOT AVBL
HOUMA*         CLEAR     57  34  41 N9        30.32R
PORT FOURCHON* CLEAR     57  39  51 NE13      30.34S

$$

MSZ070-080>082-310000-
SOUTHERN MISSISSIPPI

CITY           SKY/WX    TMP DP  RH WIND       PRES   REMARKS
MCCOMB         MOCLDY    58  29  33 VRB3      30.33S
GULFPORT       MOCLDY    58  31  35 N6        30.30S
BILOXI         MOCLDY    58  33  38 N6        30.30S
PASCAGOULA     MOCLDY    57  32  38 N5        30.30S
STENNIS ARPT*  CLEAR     55  28  35 N5        30.31S

$$

COASTAL OBSERVATIONS
LAKE AND NEARSHORE STATIONS

STATION/POSITION TIME  TEMP    WIND        PRES    WAVE
                       AIR SEA DIR/SP/G            HT/PER
                 (UTC) (F)     (DEG/KT/KT) (MB)    (FT/S)
PASCAGOULA       2223   61     360/  7/ 11 1025.3
WAVELAND YACHT   2223   59      20/ 11/ 13 1025.4
GRAND ISLE       2223   57 62   40/  8/ 11 1026.7
SOUTHWEST PASS   2223   59 47   20/ 12/ 15 1026.5
NEW CANAL        2223   56 56  310/  1/  3 1027.1
SHELL BEACH      2223   55 59   30/  5/  5 1026.5

OFFSHORE STATIONS

STATION/POSITION TIME  TEMP    WIND        PRES    WAVE
                       AIR SEA DIR/SP/G            HT/PER
                 (UTC) (F)     (DEG/KT/KT) (MB)    (FT/S)
64 S DAUPHIN ISL 2155   56 69   20/ 14/ 17 1026.0    4/ 6

$$




USA.gov is the U.S. government's official web portal to all federal, state and local government web resources and services.